Location: Newark
(44.1667°N, 8.2500°E)
Time: 18:35:34
(UTC+00:00)

Envisat - Pass Details

Date: 12 November 2019
Orbit: 764 x 766 km, 98.1° (Epoch: 08 December)

Event Time Altitude Azimuth Distance (km) Brightness Sun altitude
Rises 05:19:32 0° 26° (NNE) 3,241 6.4 -10.7°
Reaches altitude 10° 05:22:21 10° 41° (NE) 2,309 5.8 -10.2°
Maximum altitude 05:26:18 23° 93° (E) 1,607 5.8 -9.5°
Drops below altitude 10° 05:30:14 10° 144° (SE) 2,295 6.3 -8.8°
Sets 05:33:00 0° 159° (SSE) 3,216 6.8 -8.4°
